GSAT0211 (GALILEO 14) (41549 NORAD) Tracking and Keplerian Element Data

This shows tracking and keplerian element data for the satellite.

Feedback or suggestion? Click here.




ElementValue
Catalog41549
NameGSAT0211 (GALILEO 14)
Epoch Orbit5416
Epoch Day34.19955793
Epoch Year2025
RAAN235.4174
Inclination55.2698
Eccentricity0.000385
Argument of Perigee25.7248
Mean Anonmoly334.3198
Mean Motion1.70473337
Decay Rate7.4E-07
L11 41549U 16030A 25034.19955793 .00000074 00000+0 00000+0 0 9994
L22 41549 55.2698 235.4174 0003850 25.7248 334.3198 1.70473337 54162



Live tracking and technical data element details for GSAT0211 (GALILEO 14) (NORAD 41549). GSAT0211 (GALILEO 14) can be tracked NOW for your location showing map with azimuth and elevation plus other details from your city location.







IsCatalogInMostPopularTable: catalog: 41549, numindb: 665
Update: records affected: 1



GetName: 41549 GSAT0211 (GALILEO 14)

Hit Count: updated at: Wed, 18 Jun 2025 06:00:14 GMT